FW9638 Weather Reports


time (UTC)temp
F
wind
direction
speed
knots
gust
knots
rain 1hr
in
rain 24hr
in
rain mn
in
humidity
%
barometer
mb
20260504050544 71 105 7.0 15.6 0.00 0.00 0.00 57 1009.2
20260504045521 71 114 7.0 23.5 0.00 0.00 0.00 56 1009.1
20260504044524 71 96 7.8 16.5 0.00 0.00 0.00 55 1009.1
20260504043543 71 121 5.2 14.8 0.00 0.00 0.00 54 1009.0
20260504042521 71 92 7.8 13.9 0.00 0.00 0.00 52 1008.8
20260504041554 71 113 6.1 14.8 0.00 0.00 0.00 52 1008.8
20260504040558 71 112 8.7 15.6 0.00 0.00 0.00 52 1008.7
20260504035551 71 113 7.0 18.2 0.00 0.00 0.00 52 1008.7
20260504034533 71 96 8.7 20.0 0.00 0.00 0.00 52 1008.7
20260504033527 71 110 5.2 14.8 0.00 0.00 0.00 52 1008.8
20260504032550 71 113 7.0 16.5 0.00 0.00 0.00 52 1008.9
20260504031523 71 138 6.1 23.5 0.00 0.00 0.00 52 1008.9
20260504030526 71 104 9.6 16.5 0.00 0.00 0.00 52 1009.1
20260504025519 71 115 8.7 21.7 0.00 0.00 0.00 52 1009.2
20260504024538 70 109 7.0 13.9 0.00 0.00 0.00 52 1009.4
20260504023516 70 103 7.8 16.5 0.00 0.00 0.00 52 1009.8
20260504022534 70 98 7.0 13.9 0.00 0.00 0.00 52 1009.8
20260504021557 70 111 5.2 13.9 0.00 0.00 0.00 52 1010.2
20260504020530 70 103 5.2 15.6 0.00 0.00 0.00 52 1010.2
20260504015529 70 109 7.0 16.5 0.00 0.00 0.00 53 1010.3
20260504014532 70 104 7.0 20.9 0.00 0.00 0.00 53 1010.5
20260504013525 70 105 6.1 13.9 0.00 0.00 0.00 53 1010.5
20260504012523 70 118 5.2 13.0 0.00 0.00 0.00 53 1010.6
20260504011521 70 102 5.2 12.2 0.00 0.00 0.00 53 1010.4
20260504010519 69 116 5.2 13.9 0.00 0.00 0.00 53 1010.5
20260504005538 69 111 6.1 20.9 0.00 0.00 0.00 53 1010.4
20260504004515 69 96 7.0 16.5 0.00 0.00 0.00 54 1010.4
20260504003554 69 108 7.0 16.5 0.00 0.00 0.00 54 1010.3
20260504002532 69 119 7.0 18.2 0.00 0.00 0.00 54 1010.4
20260504001611 69 96 7.8 20.0 0.00 0.00 0.00 54 1010.4
20260504000528 69 109 7.0 16.5 0.00 0.00 0.00 54 1010.5
20260503235551 69 125 6.1 13.9 0.00 0.00 0.00 54 1010.6
20260503234525 68 116 7.8 14.8 0.00 0.00 0.00 54 1010.5
20260503233523 68 125 5.2 15.6 0.00 0.00 0.00 54 1010.6
20260503232521 68 111 5.2 19.1 0.00 0.00 0.00 54 1010.6
20260503231519 68 123 7.0 13.9 0.00 0.00 0.00 54 1010.6
20260503230518 68 117 4.3 11.3 0.00 0.00 0.00 54 1010.7
20260503225535 68 113 6.1 16.5 0.00 0.00 0.00 54 1010.7
20260503224619 68 110 7.8 16.5 0.00 0.00 0.00 54 1010.8
20260503223532 67 123 5.2 12.2 0.00 0.00 0.00 54 1010.7
20260503222530 67 137 5.2 13.0 0.00 0.00 0.00 55 1010.6
20260503221533 67 128 5.2 12.2 0.00 0.00 0.00 54 1010.5
20260503220527 67 127 5.2 15.6 0.00 0.00 0.00 54 1010.5
20260503215525 67 111 4.3 8.7 0.00 0.00 0.00 54 1010.5
20260503214603 67 154 3.5 7.8 0.00 0.00 0.00 55 1010.4
20260503213543 67 115 3.5 7.8 0.00 0.00 0.00 55 1010.4
20260503212609 66 117 4.3 11.3 0.00 0.00 0.00 55 1010.4
20260503211519 66 112 3.5 13.0 0.00 0.00 0.00 55 1010.5
20260503210535 66 117 3.5 11.3 0.00 0.00 0.00 55 1010.4
20260503205534 66 125 3.5 11.3 0.00 0.00 0.00 56 1010.3
20260503204532 66 119 3.5 11.3 0.00 0.00 0.00 56 1010.1
20260503203530 65 146 4.3 13.0 0.00 0.00 0.00 56 1010.1
20260503202528 65 117 5.2 16.5 0.00 0.00 0.00 56 1010.2
20260503201526 65 122 3.5 8.7 0.00 0.00 0.00 56 1010.1
20260503200526 65 136 5.2 11.3 0.00 0.00 0.00 56 1010.3
20260503195523 65 109 4.3 11.3 0.00 0.00 0.00 55 1010.3
20260503194541 65 114 4.3 15.6 0.00 0.00 0.00 54 1010.4
20260503193519 65 110 4.3 9.6 0.00 0.00 0.00 54 1010.2
20260503192540 65 136 4.3 13.9 0.00 0.00 0.00 54 1010.2
20260503191536 65 108 4.3 9.6 0.00 0.00 0.00 54 1010.4
20260503190535 65 123 3.5 8.7 0.00 0.00 0.00 54 1010.6
20260503185532 65 117 3.5 9.6 0.00 0.00 0.00 53 1010.7
20260503184530 66 104 2.6 7.8 0.00 0.00 0.00 53 1010.7
20260503183528 66 116 4.3 12.2 0.00 0.00 0.00 53 1010.6
20260503182527 66 120 2.6 8.7 0.00 0.00 0.00 53 1010.7
20260503181526 66 123 3.5 7.8 0.00 0.00 0.00 53 1010.9
20260503180543 66 106 4.3 9.6 0.00 0.00 0.00 53 1010.8
20260503175521 66 102 3.5 7.8 0.00 0.00 0.00 53 1010.9
20260503174519 66 102 3.5 8.7 0.00 0.00 0.00 53 1011.0
20260503173517 66 108 3.5 8.7 0.00 0.00 0.00 53 1011.1
20260503172535 67 103 3.5 8.7 0.00 0.00 0.00 53 1011.2
20260503171534 67 118 2.6 7.8 0.00 0.00 0.00 53 1011.2
20260503170532 67 132 4.3 11.3 0.00 0.00 0.00 53 1011.3
20260503150530 69 106 3.5 7.8 0.00 0.00 0.00 52 1011.7
20260503130533 71 101 2.6 8.7 0.00 0.00 0.43 53 1012.6
20260503110526 71 108 1.7 6.1 0.00 0.00 0.43 55 1012.8
20260503081540 71 118 1.7 5.2 0.00 0.00 0.43 55 1011.3
20260503080533 71 125 2.6 7.0 0.00 0.00 0.43 55 1011.3
20260503072616 71 116 1.7 6.1 0.00 0.00 0.43 55 1011.3
20260503071524 71 125 1.7 7.0 0.00 0.00 0.43 55 1011.1
20260503070522 71 126 4.3 13.0 0.00 0.00 0.43 55 1011.0
20260503054533 71 97 4.3 12.2 0.00 0.00 0.43 56 1011.1
20260503053611 71 110 6.1 13.0 0.00 0.00 0.43 56 1011.2
20260503052529 71 108 5.2 12.2 0.00 0.00 0.43 56 1011.0